Time,TemperatureF,DewpointF,PressureIn,WindDirection,WindDirectionDegrees,WindSpeedMPH,WindSpeedGustMPH,Humidity,HourlyPrecipIn,Conditions,Clouds,dailyrainin,SoftwareType,DateUTC
2013-05-10 00:07:00,54.4,53.0,29.86,SE,142,0.0,0.0,94,0.00,,,0.00,weatherlink.com 1.10,2013-05-10 04:07:00,
2013-05-10 00:22:00,54.6,53.0,29.86,SE,142,0.0,0.0,95,0.00,,,0.00,weatherlink.com 1.10,2013-05-10 04:22:00,
2013-05-10 00:37:00,54.7,53.0,29.85,SE,142,1.0,2.0,94,0.00,,,0.00,weatherlink.com 1.10,2013-05-10 04:37:00,
2013-05-10 00:52:00,54.7,53.0,29.85,SE,133,0.0,4.0,94,0.00,,,0.00,weatherlink.com 1.10,2013-05-10 04:52:00,
2013-05-10 01:08:00,54.3,52.0,29.85,SE,133,0.0,0.0,93,0.00,,,0.00,weatherlink.com 1.10,2013-05-10 05:08:00,
2013-05-10 01:23:00,53.9,52.0,29.85,SE,133,0.0,0.0,93,0.00,,,0.00,weatherlink.com 1.10,2013-05-10 05:23:00,
2013-05-10 01:38:00,53.7,52.0,29.85,SE,133,0.0,0.0,94,0.00,,,0.00,weatherlink.com 1.10,2013-05-10 05:38:00,
2013-05-10 01:53:00,53.4,52.0,29.85,SE,133,0.0,0.0,94,0.00,,,0.00,weatherlink.com 1.10,2013-05-10 05:53:00,
2013-05-10 02:08:00,53.1,52.0,29.85,SE,133,0.0,0.0,94,0.00,,,0.00,weatherlink.com 1.10,2013-05-10 06:08:00,
2013-05-10 02:23:00,53.2,52.0,29.84,SE,133,0.0,0.0,95,0.00,,,0.00,weatherlink.com 1.10,2013-05-10 06:23:00,
2013-05-10 02:38:00,52.7,51.0,29.84,SE,133,0.0,0.0,95,0.00,,,0.00,weatherlink.com 1.10,2013-05-10 06:38:00,
2013-05-10 02:53:00,52.7,51.0,29.85,SE,133,0.0,0.0,95,0.00,,,0.00,weatherlink.com 1.10,2013-05-10 06:53:00,
2013-05-10 03:08:00,52.6,52.0,29.85,SE,133,0.0,0.0,96,0.00,,,0.00,weatherlink.com 1.10,2013-05-10 07:08:00,
2013-05-10 03:23:00,52.8,52.0,29.86,SE,133,0.0,0.0,96,0.00,,,0.00,weatherlink.com 1.10,2013-05-10 07:23:00,
2013-05-10 03:38:00,53.1,52.0,29.85,SE,133,1.0,2.0,96,0.00,,,0.00,weatherlink.com 1.10,2013-05-10 07:38:00,
2013-05-10 03:53:00,53.3,52.0,29.85,SE,132,0.0,4.0,96,0.00,,,0.00,weatherlink.com 1.10,2013-05-10 07:53:00,
2013-05-10 04:08:00,53.1,52.0,29.86,SE,132,0.0,2.0,95,0.00,,,0.00,weatherlink.com 1.10,2013-05-10 08:08:00,
2013-05-10 04:23:00,52.8,52.0,29.85,SSE,147,0.0,4.0,95,0.00,,,0.00,weatherlink.com 1.10,2013-05-10 08:23:00,
2013-05-10 04:38:00,52.8,52.0,29.86,SE,136,0.0,2.0,95,0.00,,,0.00,weatherlink.com 1.10,2013-05-10 08:38:00,
2013-05-10 04:53:00,52.6,51.0,29.85,SSE,149,0.0,2.0,95,0.00,,,0.00,weatherlink.com 1.10,2013-05-10 08:53:00,
2013-05-10 05:08:00,52.5,51.0,29.85,SSE,148,0.0,4.0,96,0.00,,,0.00,weatherlink.com 1.10,2013-05-10 09:08:00,
2013-05-10 05:23:00,52.6,52.0,29.84,SSE,147,0.0,2.0,96,0.00,,,0.00,weatherlink.com 1.10,2013-05-10 09:23:00,
2013-05-10 05:38:00,52.6,52.0,29.85,SSE,151,0.0,2.0,96,0.00,,,0.00,weatherlink.com 1.10,2013-05-10 09:38:00,
2013-05-10 05:53:00,52.4,51.0,29.85,SE,136,0.0,2.0,95,0.00,,,0.00,weatherlink.com 1.10,2013-05-10 09:53:00,
2013-05-10 06:08:00,52.6,52.0,29.85,SE,146,0.0,2.0,96,0.00,,,0.00,weatherlink.com 1.10,2013-05-10 10:08:00,
2013-05-10 06:23:00,53.1,52.0,29.85,SE,133,0.0,5.0,96,0.00,,,0.00,weatherlink.com 1.10,2013-05-10 10:23:00,
2013-05-10 06:38:00,54.2,53.0,29.85,SSE,148,1.0,3.0,95,0.00,,,0.00,weatherlink.com 1.10,2013-05-10 10:38:00,
2013-05-10 06:53:00,55.4,54.0,29.85,ESE,115,0.0,5.0,93,0.00,,,0.00,weatherlink.com 1.10,2013-05-10 10:53:00,
2013-05-10 07:08:00,56.4,54.0,29.86,SE,127,0.0,2.0,91,0.00,,,0.00,weatherlink.com 1.10,2013-05-10 11:08:00,
2013-05-10 07:23:00,58.4,55.0,29.86,South,180,0.0,4.0,89,0.00,,,0.00,weatherlink.com 1.10,2013-05-10 11:23:00,
2013-05-10 07:38:00,59.8,56.0,29.86,SE,146,0.0,4.0,87,0.00,,,0.00,weatherlink.com 1.10,2013-05-10 11:38:00,
2013-05-10 07:53:00,61.2,56.0,29.86,SE,146,0.0,4.0,83,0.00,,,0.00,weatherlink.com 1.10,2013-05-10 11:53:00,
2013-05-10 08:08:00,62.7,57.0,29.85,SE,135,0.0,5.0,81,0.00,,,0.00,weatherlink.com 1.10,2013-05-10 12:08:00,
2013-05-10 08:23:00,64.7,57.0,29.85,SSE,149,1.0,5.0,77,0.00,,,0.00,weatherlink.com 1.10,2013-05-10 12:23:00,
2013-05-10 08:38:00,64.6,57.0,29.85,SSE,160,0.0,2.0,76,0.00,,,0.00,weatherlink.com 1.10,2013-05-10 12:38:00,
2013-05-10 08:53:00,64.9,57.0,29.86,South,188,0.0,5.0,75,0.00,,,0.00,weatherlink.com 1.10,2013-05-10 12:53:00,
2013-05-10 09:08:00,64.8,56.0,29.86,South,169,0.0,4.0,74,0.00,,,0.00,weatherlink.com 1.10,2013-05-10 13:08:00,
2013-05-10 09:23:00,66.9,57.0,29.85,South,188,2.0,5.0,70,0.00,,,0.00,weatherlink.com 1.10,2013-05-10 13:23:00,
2013-05-10 09:38:00,67.8,56.0,29.85,South,175,1.0,5.0,67,0.00,,,0.00,weatherlink.com 1.10,2013-05-10 13:38:00,
2013-05-10 09:53:00,67.9,56.0,29.84,SE,125,0.0,6.0,67,0.00,,,0.00,weatherlink.com 1.10,2013-05-10 13:53:00,
2013-05-10 10:08:00,68.9,57.0,29.84,SSE,149,3.0,7.0,66,0.00,,,0.00,weatherlink.com 1.10,2013-05-10 14:08:00,
2013-05-10 10:23:00,69.5,56.0,29.84,SSE,159,0.0,4.0,63,0.00,,,0.00,weatherlink.com 1.10,2013-05-10 14:23:00,
2013-05-10 10:39:00,69.9,56.0,29.83,WNW,292,0.0,5.0,61,0.00,,,0.00,weatherlink.com 1.10,2013-05-10 14:39:00,
2013-05-10 10:54:00,70.7,55.0,29.83,ESE,120,2.0,6.0,58,0.00,,,0.00,weatherlink.com 1.10,2013-05-10 14:54:00,
2013-05-10 11:09:00,71.0,54.0,29.83,SSW,197,0.0,5.0,56,0.00,,,0.00,weatherlink.com 1.10,2013-05-10 15:09:00,
2013-05-10 11:24:00,71.5,55.0,29.82,SSE,167,0.0,4.0,56,0.00,,,0.00,weatherlink.com 1.10,2013-05-10 15:24:00,
2013-05-10 11:39:00,70.9,54.0,29.82,SW,217,0.0,5.0,56,0.00,,,0.00,weatherlink.com 1.10,2013-05-10 15:39:00,
2013-05-10 11:54:00,71.0,54.0,29.81,SSW,202,4.0,7.0,55,0.00,,,0.00,weatherlink.com 1.10,2013-05-10 15:54:00,
2013-05-10 12:09:00,71.2,54.0,29.81,ESE,111,2.0,9.0,55,0.00,,,0.00,weatherlink.com 1.10,2013-05-10 16:09:00,
2013-05-10 12:24:00,71.3,55.0,29.81,SSW,211,0.0,6.0,56,0.00,,,0.00,weatherlink.com 1.10,2013-05-10 16:24:00,
2013-05-10 12:39:00,70.7,54.0,29.80,SSE,155,1.0,4.0,56,0.00,,,0.00,weatherlink.com 1.10,2013-05-10 16:39:00,
2013-05-10 12:54:00,69.2,54.0,29.81,SW,219,6.0,8.0,58,0.00,,,0.00,weatherlink.com 1.10,2013-05-10 16:54:00,
2013-05-10 13:09:00,67.4,55.0,29.82,SW,216,1.0,8.0,64,0.00,,,0.00,weatherlink.com 1.10,2013-05-10 17:09:00,
2013-05-10 13:24:00,66.4,55.0,29.81,SW,222,7.0,8.0,67,0.01,,,0.01,weatherlink.com 1.10,2013-05-10 17:24:00,
2013-05-10 13:39:00,66.2,55.0,29.80,WSW,238,1.0,9.0,68,0.01,,,0.01,weatherlink.com 1.10,2013-05-10 17:39:00,
2013-05-10 13:54:00,67.0,55.0,29.80,SSW,201,9.0,9.0,65,0.01,,,0.01,weatherlink.com 1.10,2013-05-10 17:54:00,
2013-05-10 14:09:00,68.8,55.0,29.79,WSW,237,1.0,8.0,62,0.01,,,0.01,weatherlink.com 1.10,2013-05-10 18:09:00,
2013-05-10 14:24:00,69.7,56.0,29.79,SE,137,1.0,5.0,63,0.00,,,0.01,weatherlink.com 1.10,2013-05-10 18:24:00,
2013-05-10 14:39:00,71.1,57.0,29.79,SSE,163,5.0,7.0,61,0.00,,,0.01,weatherlink.com 1.10,2013-05-10 18:39:00,
2013-05-10 14:54:00,72.6,56.0,29.78,SW,221,4.0,6.0,57,0.00,,,0.01,weatherlink.com 1.10,2013-05-10 18:54:00,
2013-05-10 15:09:00,72.9,56.0,29.76,South,189,0.0,9.0,56,0.00,,,0.01,weatherlink.com 1.10,2013-05-10 19:09:00,
2013-05-10 15:24:00,75.1,57.0,29.75,SSW,213,0.0,8.0,53,0.00,,,0.01,weatherlink.com 1.10,2013-05-10 19:24:00,
2013-05-10 15:39:00,73.9,55.0,29.74,SSW,205,1.0,11.0,52,0.00,,,0.01,weatherlink.com 1.10,2013-05-10 19:39:00,
2013-05-10 15:54:00,73.6,55.0,29.74,SW,224,5.0,7.0,53,0.00,,,0.01,weatherlink.com 1.10,2013-05-10 19:54:00,
2013-05-10 16:09:00,71.2,55.0,29.74,SW,215,8.0,11.0,56,0.00,,,0.01,weatherlink.com 1.10,2013-05-10 20:09:00,
2013-05-10 16:24:00,70.0,55.0,29.74,WSW,245,0.0,3.0,59,0.00,,,0.01,weatherlink.com 1.10,2013-05-10 20:24:00,
2013-05-10 16:39:00,69.8,55.0,29.73,SSW,209,0.0,6.0,60,0.00,,,0.01,weatherlink.com 1.10,2013-05-10 20:39:00,
2013-05-10 16:54:00,69.4,56.0,29.71,SSW,196,4.0,7.0,63,0.00,,,0.01,weatherlink.com 1.10,2013-05-10 20:54:00,
2013-05-10 17:09:00,69.5,56.0,29.71,WSW,248,1.0,5.0,62,0.00,,,0.01,weatherlink.com 1.10,2013-05-10 21:09:00,
2013-05-10 17:24:00,69.8,55.0,29.71,SSW,192,2.0,9.0,60,0.00,,,0.01,weatherlink.com 1.10,2013-05-10 21:24:00,
2013-05-10 17:39:00,69.7,55.0,29.71,SSW,200,1.0,6.0,60,0.00,,,0.01,weatherlink.com 1.10,2013-05-10 21:39:00,
2013-05-10 17:54:00,69.5,54.0,29.70,SW,225,1.0,9.0,59,0.00,,,0.01,weatherlink.com 1.10,2013-05-10 21:54:00,
2013-05-10 18:09:00,69.0,54.0,29.70,ESE,112,1.0,8.0,60,0.00,,,0.01,weatherlink.com 1.10,2013-05-10 22:09:00,
2013-05-10 18:24:00,68.5,55.0,29.70,SSW,209,2.0,7.0,62,0.00,,,0.01,weatherlink.com 1.10,2013-05-10 22:24:00,
2013-05-10 18:39:00,68.2,55.0,29.70,SW,221,0.0,8.0,63,0.00,,,0.01,weatherlink.com 1.10,2013-05-10 22:39:00,
2013-05-10 18:54:00,67.9,55.0,29.69,ESE,123,0.0,6.0,64,0.00,,,0.01,weatherlink.com 1.10,2013-05-10 22:54:00,
2013-05-10 19:09:00,67.6,55.0,29.69,SSW,195,1.0,5.0,65,0.00,,,0.01,weatherlink.com 1.10,2013-05-10 23:09:00,
2013-05-10 19:39:00,67.1,54.0,29.69,ESE,109,1.0,5.0,64,0.00,,,0.01,weatherlink.com 1.10,2013-05-10 23:39:00,
2013-05-10 19:54:00,66.8,55.0,29.69,SSW,199,0.0,5.0,66,0.00,,,0.01,weatherlink.com 1.10,2013-05-10 23:54:00,
2013-05-10 20:09:00,66.4,55.0,29.69,South,173,0.0,4.0,68,0.00,,,0.01,weatherlink.com 1.10,2013-05-11 00:09:00,
2013-05-10 20:24:00,64.7,55.0,29.71,NW,319,5.0,13.0,71,0.00,,,0.01,weatherlink.com 1.10,2013-05-11 00:24:00,
2013-05-10 20:39:00,64.8,57.0,29.70,East,100,0.0,5.0,75,0.00,,,0.01,weatherlink.com 1.10,2013-05-11 00:39:00,
2013-05-10 20:54:00,62.6,57.0,29.71,SSW,213,0.0,5.0,83,0.02,,,0.03,weatherlink.com 1.10,2013-05-11 00:54:00,
2013-05-10 21:09:00,59.5,56.0,29.74,NW,310,1.0,16.0,89,0.10,,,0.11,weatherlink.com 1.10,2013-05-11 01:09:00,
2013-05-10 21:25:00,59.1,57.0,29.73,SE,141,0.0,4.0,93,0.20,,,0.21,weatherlink.com 1.10,2013-05-11 01:25:00,
2013-05-10 21:40:00,59.2,58.0,29.72,South,173,1.0,1.0,94,0.21,,,0.22,weatherlink.com 1.10,2013-05-11 01:40:00,
2013-05-10 21:55:00,59.7,58.0,29.72,SSW,206,0.0,4.0,95,0.20,,,0.23,weatherlink.com 1.10,2013-05-11 01:55:00,
2013-05-10 22:10:00,59.7,58.0,29.70,South,177,0.0,5.0,95,0.13,,,0.24,weatherlink.com 1.10,2013-05-11 02:10:00,
2013-05-10 22:25:00,59.9,59.0,29.69,South,183,1.0,6.0,96,0.03,,,0.24,weatherlink.com 1.10,2013-05-11 02:25:00,
2013-05-10 22:40:00,60.0,59.0,29.68,WSW,240,1.0,5.0,96,0.02,,,0.24,weatherlink.com 1.10,2013-05-11 02:40:00,
2013-05-10 22:55:00,59.8,59.0,29.67,South,175,0.0,2.0,96,0.02,,,0.25,weatherlink.com 1.10,2013-05-11 02:55:00,
2013-05-10 23:10:00,60.0,59.0,29.66,ESE,104,2.0,5.0,96,0.01,,,0.25,weatherlink.com 1.10,2013-05-11 03:10:00,
2013-05-10 23:25:00,60.1,59.0,29.66,SSE,165,0.0,5.0,96,0.01,,,0.25,weatherlink.com 1.10,2013-05-11 03:25:00,
2013-05-10 23:40:00,59.7,59.0,29.65,South,180,0.0,10.0,96,0.01,,,0.25,weatherlink.com 1.10,2013-05-11 03:40:00,
2013-05-10 23:55:00,59.4,58.0,29.64,WSW,248,2.0,6.0,96,0.00,,,0.25,weatherlink.com 1.10,2013-05-11 03:55:00,